Location: Borgo
(42.3939°N, 9.2791°E)
Time: 07:02:18
(UTC+00:00)

Cosmos-2242 - Visible Passes

Search period start: 11 May 2021 00:00
Search period end: 21 May 2021 00:00
Orbit: 589 x 618 km, 82.5° (Epoch: 11 May)

Date Brightness Start Highest point End Pass type
(mag) Time Alt. Az. Time Alt. Az. Time Alt. Az.
13 May 6.3 03:21:42 10° NE 03:24:08 15° ENE 03:26:33 10° ESE visible
18 May 6.1 02:46:39 10° NNE 02:49:20 16° ENE 02:52:02 10° ESE visible
19 May 5.5 02:58:27 10° NNE 03:02:03 25° ENE 03:05:39 10° SE visible
20 May 4.5 03:10:36 10° N 03:14:42 41° ENE 03:18:48 10° SSE visible
